Location: Newark
(20.1200°S, 168.9600°E)
Time: 21:25:46
(UTC+00:00)

Hubble Space Telescope - Pass Details

Date: 30 November 2019
Orbit: 536 x 540 km, 28.5° (Epoch: 05 December)

Event Time Altitude Azimuth Distance (km) Brightness Sun altitude
Exits shadow 16:53:12 - 240° (WSW) 2,258 3.7 -13.9°
Reaches altitude 10° 16:54:28 10° 234° (SW) 1,802 3.2 -13.6°
Maximum altitude 16:58:15 32° 169° (S) 934 2.4 -12.9°
Drops below altitude 10° 17:02:01 10° 104° (ESE) 1,798 4.8 -12.1°
Sets 17:04:27 0° 94° (E) 2,687 5.7 -11.6°
